Location: Enid
(36.3960°N, 97.8780°W)
Time: 07:15:23
(UTC-05:00)

Hubble Space Telescope - Visible Passes

Search period start: 25 June 2016 00:00
Search period end: 05 July 2016 00:00
Orbit: 539 x 543 km, 28.5° (Epoch: 25 June)

Date Brightness Start Highest point End Pass type
(mag) Time Alt. Az. Time Alt. Az. Time Alt. Az.
25 Jun 3.1 04:06:39 13° SE 04:06:39 13° SE 04:07:12 10° SE visible
25 Jun 2.8 05:42:59 10° SW 05:44:29 12° SSW 05:45:58 10° S visible
28 Jun 3.1 22:20:33 10° S 22:20:33 10° S 22:20:33 10° S visible
29 Jun 2.5 22:10:14 10° SSW 22:12:16 16° S 22:12:16 16° S visible
30 Jun 2.3 22:00:06 10° SSW 22:02:59 18° SSE 22:03:43 18° SSE visible
01 Jul 2.2 21:50:05 10° SW 21:53:12 21° SSE 21:54:58 16° SE visible
02 Jul 2.1 21:40:07 10° SW 21:43:24 23° S 21:46:01 13° SE visible
02 Jul 3.1 23:20:41 10° WSW 23:21:25 14° SW 23:21:25 14° SW visible
03 Jul 2.0 21:30:14 10° SW 21:33:38 25° S 21:36:56 10° ESE visible
03 Jul 2.8 23:10:58 10° WSW 23:12:20 17° SW 23:12:20 17° SW visible
04 Jul 2.0 21:20:24 10° SW 21:23:52 26° S 21:27:20 10° ESE visible
04 Jul 2.6 23:01:18 10° WSW 23:03:08 19° SW 23:03:08 19° SW visible
